Regional Weather Roundup
Issued by NWS

Home | Current Version | Previous Version | Graphics & Text | Print | Product List | Glossary On
Versions: 1 2 3 4 5 6 7 8 9 10 11 12 13 14 15 16 17 18 19 20 21 22 23 24 25 26 27 28 29 30 31 32 33 34 35 36 37 38 39 40 41 42 43 44 45 46 47 48 49 50
000
ASUS43 KOAX 041610
RWRNE

WEATHER ROUNDUP FOR NEBRASKA
NATIONAL WEATHER SERVICE OMAHA NE
1000 AM CST SUN DEC 04 2016

NOTES: SATELLITE DATA IS BEING USED TO AUGMENT CLOUD COVER ABOVE
       12000 FEET.
       "FAIR" INDICATES FEW OR NO CLOUDS BELOW 12,000 FEET WITH NO
       SIGNIFICANT WEATHER AND/OR OBSTRUCTIONS TO VISIBILITY.

  * THESE STATIONS DO NOT REPORT WEATHER SUCH AS RAIN...SNOW OR FOG.

NEZ001>004-019>022-054>056-041700-
NEBRASKA PANHANDLE

CITY           SKY/WX    TMP DP  RH WIND       PRES   REMARKS
SCOTTSBLUFF    SUNNY     30  17  58 CALM      29.97F
ALLIANCE       SUNNY     29  18  63 W10       29.95F WCI  20
CHADRON        SUNNY     34  14  43 SW14      29.94F WCI  25
KIMBALL        SUNNY     35  16  46 W8        29.99S WCI  28
SIDNEY         SUNNY     36  14  40 W20       30.00S WCI  25
$$

NEZ057>060-069>072-079>082-041700-
SOUTHWEST NEBRASKA

CITY           SKY/WX    TMP DP  RH WIND       PRES   REMARKS
NORTH PLATTE   SUNNY     33  23  66 W10       30.01R WCI  25
IMPERIAL       SUNNY     35  17  47 NW13      30.03S WCI  26
LEXINGTON      SUNNY     33  26  75 NW14      30.01R WCI  23
MCCOOK         SUNNY     31  20  63 W14       30.05R WCI  21
OGALLALA       SUNNY     37  20  50 SW10      30.01S WCI  30
$$

NEZ005>010-023>029-035>040-094-041700-
NORTH CENTRAL NEBRASKA

CITY           SKY/WX    TMP DP  RH WIND       PRES   REMARKS
VALENTINE      SUNNY     36  21  54 W15       29.92F WCI  27
AINSWORTH      SUNNY     35  24  65 W13       29.92S WCI  26
BROKEN BOW     SUNNY     37  24  59 W9        29.97R WCI  30
O`NEILL        SUNNY     36  28  73 W12       29.93S WCI  28
ORD            SUNNY     35  27  72 CALM      29.96S
THEDFORD       SUNNY     36  23  60 W13       29.96S WCI  27
$$

NEZ041-046>049-061>064-073>077-083>087-041700-
SOUTH CENTRAL NEBRASKA

CITY           SKY/WX    TMP DP  RH WIND       PRES   REMARKS
GRAND ISLAND   SUNNY     35  29  78 W10       29.99R WCI  27
AURORA         SUNNY     34  31  88 W6        29.98R WCI  29
HASTINGS       SUNNY     33  27  78 W7        30.00R WCI  27
HEBRON         CLOUDY    32  31  96 W6        30.03R FOG     WCI  26
HOLDREGE       SUNNY     33  27  78 W9        30.01R WCI  25
KEARNEY *      SUNNY     36  23  60 W7        30.00R WCI  30
YORK           SUNNY     32  32 100 W7        29.99R WCI  26
$$

NEZ011>018-030>034-042>045-041700-
NORTHEAST NEBRASKA

CITY           SKY/WX    TMP DP  RH WIND       PRES   REMARKS
NORFOLK        SUNNY     35  27  72 W12       29.94R WCI  27
ALBION         SUNNY     34  28  79 CALM      29.96R
BLAIR          CLOUDY    33  32  95 SW10      29.96S WCI  25
FREMONT        SUNNY     33  32  96 SW6       29.97S WCI  27
TEKAMAH        SUNNY     31  29  92 S9        29.96F WCI  23
WAYNE          SUNNY     37  31  79 W3        29.93S
$$

NEZ050>053-065>068-078-088>093-041700-
SOUTHEAST NEBRASKA

CITY           SKY/WX    TMP DP  RH WIND       PRES   REMARKS
LINCOLN        CLOUDY    32  31  96 SW10      30.01S WCI  24
OMAHA EPPLEY   PTSUNNY   35  30  82 SW6       29.99S WCI  30
BEATRICE       CLOUDY    33  32  96 W8        30.02R WCI  26
FALLS CITY     CLOUDY    35  34  96 W9        30.03R WCI  28
NEBRASKA CITY  CLOUDY    34  33  96 W8        30.00F WCI  28
PLATTSMOUTH    CLOUDY    34  30  86 SW9       29.98F WCI  26
$$

NEZ044-045-051>053-067-041700-
OMAHA AREA

CITY           SKY/WX    TMP DP  RH WIND       PRES   REMARKS
OMAHA EPPLEY   PTSUNNY   35  30  82 SW6       29.99S WCI  30
BLAIR          CLOUDY    33  32  95 SW10      29.96S WCI  25
FREMONT        SUNNY     33  32  96 SW6       29.97S WCI  27
MILLARD        CLOUDY    35  32  90 W7        29.99R WCI  29
OFFUTT AFB     CLOUDY    35  35 100 SW6       29.99R WCI  29
PLATTSMOUTH    CLOUDY    34  30  86 SW9       29.98F WCI  26
WAHOO          FAIR      33  31  94 SW9       29.97S WCI  25
$$




USA.gov is the U.S. government's official web portal to all federal, state and local government web resources and services.